DW5575 Weather Reports


Display with metric or nautical units.
time (UTC)temp
F
wind
direction
speed
MPH
gust
MPH
rain 1hr
in
rain 24hr
in
rain mn
in
humidity
%
barometer
mb
20260506120047 75 90 0.0 0.0 0.00 0.00 0.00 89 1009.1
20260506114550 74 90 0.0 0.0 0.00 0.00 0.00 88 1009.0
20260506113041 74 90 0.0 0.0 0.00 0.00 0.00 88 1008.8
20260506111543 74 90 0.0 1.0 0.00 0.00 0.00 88 1008.6
20260506110040 74 94 0.0 0.0 0.00 0.00 0.00 87 1008.4
20260506104543 74 117 0.0 0.0 0.00 0.00 0.00 87 1008.3
20260506103037 75 117 0.0 0.0 0.00 0.00 0.00 87 1008.4
20260506101537 75 117 0.0 1.0 0.00 0.00 0.00 87 1008.4
20260506100039 75 278 0.0 2.0 0.00 0.00 0.00 87 1008.1
20260506094537 75 179 0.0 2.0 0.00 0.00 0.00 86 1008.1
20260506093055 75 268 0.0 3.0 0.00 0.00 0.00 86 1007.9
20260506091534 75 273 0.0 4.0 0.00 0.00 0.00 86 1008.0
20260506090036 76 22 0.0 2.0 0.00 0.00 0.00 86 1008.1
20260506084530 76 230 0.0 2.0 0.00 0.00 0.00 86 1008.2
20260506083027 76 219 0.0 1.0 0.00 0.00 0.00 86 1008.3
20260506081526 76 278 0.0 0.0 0.00 0.00 0.00 86 1008.4
20260506073022 76 344 0.0 1.0 0.00 0.00 0.00 86 1008.8
20260506071523 76 250 0.0 1.0 0.00 0.00 0.00 86 1008.9
20260506061518 76 255 0.0 0.0 0.00 0.00 0.00 85 1009.3
20260506044510 77 13 0.0 2.0 0.00 0.00 0.00 83 1009.3
20260506043008 77 271 0.0 4.0 0.00 0.00 0.00 82 1009.3
20260506041508 77 273 0.0 2.0 0.00 0.00 0.00 82 1009.0
20260506040008 78 330 0.0 3.0 0.00 0.00 0.00 81 1008.9
20260506034507 78 208 0.0 2.0 0.00 0.00 0.00 80 1009.0
20260506033006 78 286 0.0 2.0 0.00 0.00 0.00 80 1008.6
20260506031506 78 240 0.0 2.0 0.00 0.00 0.00 80 1008.3
20260506030005 78 293 0.0 3.0 0.00 0.00 0.00 80 1008.3
20260506024506 78 253 0.0 2.0 0.00 0.00 0.00 80 1008.1
20260506023004 78 228 0.0 4.0 0.00 0.00 0.00 79 1007.9
20260506021503 79 123 0.0 6.0 0.00 0.00 0.00 79 1007.8
20260506020003 79 339 0.0 2.0 0.00 0.00 0.00 78 1007.5
20260506014507 79 197 0.0 7.0 0.00 0.00 0.00 77 1007.3
20260506013005 79 259 0.0 3.0 0.00 0.00 0.00 76 1007.2
20260506011502 80 317 0.0 3.0 0.00 0.00 0.00 76 1006.8
20260506010002 80 210 0.0 3.0 0.00 0.00 0.00 75 1006.6
20260506004501 80 317 0.0 2.0 0.00 0.00 0.00 74 1006.6
20260506003101 80 263 0.0 3.0 0.00 0.00 0.00 74 1006.5
20260506001607 81 232 1.0 5.0 0.00 0.00 0.00 74 1006.4
20260506000159 81 313 1.0 4.0 0.00 0.00 0.00 73 1006.5
20260505234616 82 244 1.0 5.0 0.00 0.00 0.00 72 1006.4
20260505233059 82 277 0.0 4.0 0.00 0.00 0.00 72 1006.3
20260505231600 82 206 0.0 5.0 0.00 0.00 0.00 71 1006.3
20260505230057 82 265 2.0 5.0 0.00 0.00 0.00 72 1006.4
20260505224556 82 337 1.0 4.0 0.00 0.00 0.00 72 1006.4
20260505223059 83 360 1.0 5.0 0.00 0.00 0.00 71 1006.4
20260505221559 83 347 1.0 5.0 0.00 0.00 0.00 70 1006.5
20260505220105 84 187 1.0 6.0 0.00 0.00 0.00 70 1006.6
20260505214601 84 331 1.0 7.0 0.00 0.00 0.00 71 1006.8
20260505213050 83 206 2.0 9.0 0.00 0.00 0.00 70 1006.9
20260505211616 83 266 1.0 5.0 0.00 0.00 0.00 72 1007.1
20260505210047 84 302 1.0 4.0 0.00 0.00 0.00 71 1007.2
20260505204557 84 235 1.0 4.0 0.00 0.00 0.00 70 1007.5
20260505203044 84 234 1.0 4.0 0.00 0.00 0.00 70 1007.6
20260505201542 85 190 1.0 4.0 0.00 0.00 0.00 70 1008.0
20260505200039 84 192 1.0 9.0 0.00 0.00 0.00 71 1008.1
20260505194537 84 247 1.0 6.0 0.00 0.00 0.00 71 1008.3
20260505193036 83 288 1.0 7.0 0.00 0.00 0.00 71 1008.4
20260505191536 84 240 1.0 5.0 0.00 0.00 0.00 71 1008.5
20260505190034 83 252 0.0 4.0 0.00 0.00 0.00 73 1008.5
20260505184540 83 253 0.0 6.0 0.00 0.00 0.00 72 1008.7
20260505183031 83 172 2.0 6.0 0.00 0.00 0.00 72 1008.7
20260505181530 82 237 1.0 10.0 0.00 0.00 0.00 74 1008.8
20260505180026 81 175 1.0 7.0 0.00 0.00 0.00 76 1008.9
20260505174535 80 310 1.0 7.0 0.00 0.00 0.00 76 1009.2
20260505173024 80 201 0.0 3.0 0.00 0.00 0.00 76 1009.3
20260505171532 80 254 0.0 4.0 0.00 0.00 0.00 77 1009.3
20260505170023 80 221 2.0 5.0 0.00 0.00 0.00 76 1009.3
20260505164519 79 178 0.0 4.0 0.00 0.00 0.00 79 1009.4
20260505163016 78 259 2.0 8.0 0.00 0.00 0.00 80 1009.3
20260505161514 78 194 1.0 7.0 0.00 0.00 0.00 80 1009.3
20260505153023 77 200 1.0 7.0 0.00 0.00 0.00 83 1009.0
20260505151507 76 45 0.0 5.0 0.00 0.00 0.00 83 1009.1
20260505124548 72 258 0.0 2.0 0.00 0.00 0.00 88 1008.7
20260505123053 71 216 0.0 1.0 0.00 0.00 0.00 88 1008.7
20260505121544 71 198 0.0 2.0 0.00 0.00 0.00 87 1008.7